Location: Newark
(46.7000°N, 60.6000°W)
Time: 10:19:44
(UTC+00:00)

Transit 2A Rocket - Pass Details

Date: 01 November 2020
Orbit: 588 x 915 km, 66.7° (Epoch: 23 November)

Event Time Altitude Azimuth Distance (km) Brightness Sun altitude
Rises 18:12:21 0° 325° (NW) 3,406 8.2 20.3°
Reaches altitude 10° 18:17:13 10° 1° (N) 2,378 7.2 19.8°
Maximum altitude 18:18:35 11° 15° (NNE) 2,290 7.0 19.6°
Drops below altitude 10° 18:19:55 10° 30° (NNE) 2,321 7.0 19.5°
Sets 18:24:25 0° 67° (ENE) 3,142 7.6 19.0°
